Simultaneous Nadir Overpasses (SNOs) Predictions

Prediction of SNOs near equator between AQUA and NPP Satellite Orbit:

Table of predicted SNOs near equator for the next 14.0 days since TLE Epoch: 4/27/2019
Index Date (AQUA) Time (AQUA) AQUA Lat,Lon Date (NPP) Time (NPP) NPP Lat,Lon Distance(km) Time Diff (sec)
1 04/28/2019 08:42:08 -4.49,-107.23 04/28/2019 08:32:37 -4.40,-107.61 44.10 571
2 04/28/2019 09:30:22 -0.14, 61.38 04/28/2019 09:22:07 -0.26, 60.73 74.14 495
3 05/01/2019 00:16:16 29.94,-164.85 05/01/2019 00:06:16 30.38,-165.49 77.90 600
4 05/01/2019 00:58:08 -2.78, 9.02 05/01/2019 00:49:05 -2.70, 8.53 54.62 543
5 05/01/2019 01:46:23 -1.79, 177.61 05/01/2019 01:38:35 -1.96, 176.87 84.45 468
6 05/03/2019 16:26:01 5.68, -43.38 05/03/2019 16:16:10 5.62, -43.69 35.11 591
7 05/03/2019 17:14:09 -1.20, 125.23 05/03/2019 17:05:33 -1.06, 124.66 65.12 516
8 05/03/2019 18:02:23 -3.44, -66.16 05/03/2019 17:55:03 -3.60, -67.00 94.78 440
9 05/06/2019 08:42:02 4.04, 72.85 05/06/2019 08:32:38 3.93, 72.46 45.66 564
10 05/06/2019 09:30:09 0.50,-118.52 05/06/2019 09:22:01 0.63,-119.19 75.58 488
11 05/09/2019 00:15:33 -27.78, 15.72 05/09/2019 00:05:33 -27.81, 15.21 50.66 600
12 05/09/2019 00:58:02 2.34,-170.91 05/09/2019 00:49:06 2.24,-171.40 56.08 536
13 05/09/2019 01:46:10 2.14, -2.30 05/09/2019 01:38:29 2.33, -3.05 86.05 461




NCC Satellite Simultaneous Nadir Overpasses (SNOs) Prediction Service
